Location: Ajisawe
(8.4333°N, 4.3833°E)
Time: 22:46:43
(UTC+00:00)

Vanguard 1 Rocket - Pass Details

Date: 21 April 2021
Orbit: 652 x 4224 km, 34.3° (Epoch: 10 May)

Event Time Altitude Azimuth Distance (km) Brightness Sun altitude
Rises 21:06:18 0° 287° (WNW) 3,989 11.4 -46.4°
Reaches altitude 10° 21:08:39 10° 280° (W) 3,318 10.8 -46.9°
Enters shadow 21:13:29 36° 250° (WSW) 2,455 9.6 -47.9°
